World > North America > United States > Michigan

Harbor Beach, Michigan Regional Weather

Lat: 43.85N, Lon: 82.65W
Wx Zone: MIZ049
Feedback

Harbor Beach, MI Regional Weather

Expires:202007042000;;314869
ASUS43 KDTX 041910
RWRMI 
MICHIGAN HOURLY REGIONAL WEATHER ROUNDUP
NATIONAL WEATHER SERVICE DETROIT/PONTIAC MI
300 PM EDT SAT JUL 04 2020

NOTE: "FAIR" INDICATES FEW OR NO CLOUDS BELOW 12,000 FEET WITH NO
SIGNIFICANT WEATHER AND/OR OBSTRUCTION TO VISIBILITY.


MIZ047>049-052>055-059>063-066>070-074>076-081>083-042000-
SOUTHEAST LOWER MICHIGAN
  
CITY           SKY/WX    TMP DP  RH WIND       PRES   REMARKS
ADRIAN         MOSUNNY   88  65  46 E10       30.04S HX  90           
ALMA           MOSUNNY   87  56  33 NE3       30.06S                  
ANN ARBOR      SUNNY     89  61  38 NE5       30.02F                  
BAD AXE        SUNNY     86  46  24 E6        30.06S                  
CARO           SUNNY     89  46  22 E3        30.04F                  
DETROIT CITY   SUNNY     87  58  37 E10       30.03S                  
DETROIT        MOSUNNY   88  56  33 E8        30.02S                  
FLINT          MOSUNNY   91  56  30 VRB5      30.05S                  
GROSSE ILE     SUNNY     88  57  34 N6        30.01S                  
HILLSDALE      MOSUNNY   86  64  48 CALM      30.04F                  
HOWELL         MOSUNNY   86  58  38 N5        30.05S                  

CITY           SKY/WX    TMP DP  RH WIND       PRES   REMARKS
JACKSON        MOSUNNY   88  63  43 VRB3      30.05S                  
LAMBERTVILLE   SUNNY     87  60  39 E6        30.02F                  
LANSING        MOSUNNY   87  62  43 VRB6      30.06S                  
LAPEER         FAIR      86  58  38 NE5       30.06S                  
MASON          MOSUNNY   85  62  45 CALM      30.06S                  
MONROE         SUNNY     88  51  27 E3        30.02S                  
MT. CLEMENS    MOSUNNY   87  56  35 E8        30.02S                  
PONTIAC        PTSUNNY   88  55  32 N7        30.03S                  
PORT HOPE        N/A     74  63  68 VRB6      30.08R                  
PORT HURON     MOSUNNY   84  52  32 NE5       30.04S                  
TRI CITIES     SUNNY     89  51  27 N10       30.06S                  
MIDLAND        FAIR      87  53  31 NE8G18    30.05S                  
TROY           MOSUNNY   89  54  30 N6        30.04F                  
SAGINAW HB     SUNNY     86  52  30 NE5       30.04S                  
$$

SKY/WX - Weather  TMP - Temperature  DP - Dew Point  RH - Relative Humidity
WIND - Wind Direction/Speed PRES - Barometric Pressure VSB - Visibility
WCI - Wind Chill Index E13G22 Wind - East Wind 13 mph/Gusts of 22 mph
Harbor Beach Weather Map
UTC Time: 7/4/2020, 19:14
Your Time: